Location: Cedar Brake
(32.2526°N, 97.8459°W)
Time: 20:58:42
(UTC+00:00)

CZ-4B R/B - Pass Details

Date: 22 April 2026
Orbit: 807 x 880 km, 98.9° (Epoch: 21 May)

Event Time Altitude Azimuth Distance (km) Brightness Sun altitude
Exits shadow 03:25:12 49° 207° (SSW) 1,098 3.6 -27.4°
Maximum altitude 03:26:26 62° 259° (WSW) 970 3.5 -27.6°
Drops below altitude 10° 03:32:01 10° 339° (NNW) 2,532 6.4 -28.5°
Sets 03:34:27 0° 343° (NNW) 3,478 7.2 -28.9°
